Location: Allentsteig
(48.6833°N, 15.3167°E)
Time: 09:07:04
(UTC+00:00)

USA 238 DEB - Visible Passes

Search period start: 17 January 2021 00:00
Search period end: 27 January 2021 00:00
Orbit: 997 x 1215 km, 63.4° (Epoch: 11 January)

Date Brightness Start Highest point End Pass type
(mag) Time Alt. Az. Time Alt. Az. Time Alt. Az.
17 Jan 5.4 06:01:09 10° S 06:07:07 38° ESE 06:13:19 10° NE visible
17 Jan 7.4 17:15:11 10° W 17:16:39 11° WSW 17:18:07 10° WSW visible
18 Jan 6.1 05:17:32 10° SSE 05:22:41 25° ESE 05:28:00 10° ENE visible
18 Jan 6.8 16:27:45 10° WNW 16:32:24 18° WSW 16:37:09 10° SSW visible
19 Jan 6.5 04:34:45 10° SE 04:38:23 15° ESE 04:42:05 10° ENE visible
20 Jan 4.7 05:37:10 10° SSW 05:43:25 49° ESE 05:49:59 10° NE visible
21 Jan 5.5 04:53:14 10° S 04:58:55 32° ESE 05:04:50 10° NE visible
21 Jan 7.0 16:05:18 10° WNW 16:08:34 13° WSW 16:11:52 10° SW visible
22 Jan 6.1 04:09:53 10° SSE 04:14:32 21° ESE 04:19:19 10° ENE visible
22 Jan 3.8 05:57:56 10° SW 06:04:32 89° SE 06:11:30 10° NE visible
23 Jan 6.4 03:27:46 10° SE 03:30:18 12° ESE 03:32:51 10° E visible
23 Jan 4.2 05:13:20 10° SSW 05:19:48 62° ESE 05:26:35 10° NE visible
24 Jan 4.9 04:29:07 10° S 04:35:12 42° ESE 04:41:33 10° NE visible
25 Jan 5.5 03:45:24 10° SSE 03:50:45 27° ESE 03:56:17 10° ENE visible
25 Jan 3.6 05:34:25 10° SW 05:41:02 76° NW 05:48:01 10° NE visible
26 Jan 6.0 03:02:24 10° SE 03:06:25 17° ESE 03:10:32 10° ENE visible
26 Jan 3.8 04:49:39 10° SSW 04:56:13 78° SE 05:03:08 10° NE visible
